GW1213 Weather Reports


time (UTC)temp
F
wind
direction
speed
knots
gust
knots
rain 1hr
in
rain 24hr
in
rain mn
in
humidity
%
barometer
mb
20260506061548 69 159 0.9 5.2 0.00 0.00 0.00 60 1010.2
20260506061037 70 240 0.9 5.2 0.00 0.00 0.00 60 1010.2
20260506060538 70 0 0.0 9.6 0.00 0.00 0.00 59 1010.2
20260506051038 72 264 4.3 12.2 0.00 0.00 0.00 56 1010.4
20260506050538 72 163 3.5 12.2 0.00 0.00 0.00 56 1010.5
20260506045038 72 184 2.6 7.8 0.00 0.00 0.00 55 1010.7
20260506044552 72 254 2.6 8.7 0.00 0.00 0.00 54 1010.7
20260506044038 72 203 2.6 8.7 0.00 0.00 0.00 54 1010.5
20260506043536 72 185 2.6 11.3 0.00 0.00 0.00 54 1010.6
20260506043047 73 273 2.6 11.3 0.00 0.00 0.00 53 1010.6
20260506042536 73 225 1.7 14.8 0.00 0.00 0.00 53 1010.6
20260506042037 73 203 2.6 14.8 0.00 0.00 0.00 53 1010.5
20260506041549 73 181 2.6 10.4 0.00 0.00 0.00 53 1010.7
20260506041036 73 196 2.6 10.4 0.00 0.00 0.00 52 1010.6
20260506040534 73 139 3.5 10.4 0.00 0.00 0.00 52 1010.7
20260506040058 73 273 0.9 10.4 0.00 0.00 0.00 52 1010.6
20260506035538 73 210 2.6 12.2 0.00 0.00 0.00 51 1010.7
20260506035036 73 182 3.5 12.2 0.00 0.00 0.00 51 1010.6
20260506034605 73 181 3.5 10.4 0.00 0.00 0.00 51 1010.6
20260506034034 73 246 2.6 10.4 0.00 0.00 0.00 51 1010.4
20260506033534 73 147 1.7 10.4 0.00 0.00 0.00 51 1010.4
20260506033048 73 215 3.5 10.4 0.00 0.00 0.00 51 1010.4
20260506032535 73 194 1.7 8.7 0.00 0.00 0.00 51 1010.6
20260506032036 73 220 1.7 9.6 0.00 0.00 0.00 51 1010.6
20260506031558 73 143 1.7 9.6 0.00 0.00 0.00 51 1010.6
20260506031036 73 117 0.9 8.7 0.00 0.00 0.00 51 1010.6
20260506030534 73 192 2.6 8.7 0.00 0.00 0.00 51 1010.6
20260506030052 73 196 0.9 7.0 0.00 0.00 0.00 51 1010.6
20260506025536 73 207 0.9 7.0 0.00 0.00 0.00 51 1010.6
20260506025035 73 0 0.0 4.3 0.00 0.00 0.00 51 1010.6
20260506024552 73 225 1.7 4.3 0.00 0.00 0.00 50 1010.6
20260506024034 73 10 0.0 5.2 0.00 0.00 0.00 50 1010.7
20260506023536 73 0 0.0 5.2 0.00 0.00 0.00 49 1010.8
20260506023050 73 217 1.7 5.2 0.00 0.00 0.00 49 1010.8
20260506022536 73 0 1.7 5.2 0.00 0.00 0.00 49 1010.8
20260506022035 73 0 0.0 5.2 0.00 0.00 0.00 48 1010.9
20260506021557 74 173 0.9 4.3 0.00 0.00 0.00 47 1010.8
20260506021034 74 86 0.9 6.1 0.00 0.00 0.00 47 1010.8
20260506020536 74 153 0.9 6.1 0.00 0.00 0.00 47 1010.8
20260506020052 74 188 0.0 3.5 0.00 0.00 0.00 46 1010.8
20260506015536 74 100 0.9 3.5 0.00 0.00 0.00 45 1010.8
20260506015036 75 142 0.0 4.3 0.00 0.00 0.00 45 1010.6
20260506014547 75 0 0.9 7.8 0.00 0.00 0.00 44 1010.6
20260506014039 75 149 0.9 7.8 0.00 0.00 0.00 44 1010.5
20260506013538 75 180 0.9 6.1 0.00 0.00 0.00 44 1010.6
20260506013052 75 251 0.9 6.1 0.00 0.00 0.00 43 1010.6
20260506012537 75 173 0.9 5.2 0.00 0.00 0.00 43 1010.5
20260506012039 76 154 0.9 5.2 0.00 0.00 0.00 42 1010.4
20260506011551 76 166 0.9 5.2 0.00 0.00 0.00 41 1010.3
20260506011038 76 217 0.9 5.2 0.00 0.00 0.00 41 1010.2
20260506010538 76 211 0.9 5.2 0.00 0.00 0.00 41 1010.1
20260506010057 76 0 0.9 7.8 0.00 0.00 0.00 40 1010.1
20260506005538 76 180 2.6 7.8 0.00 0.00 0.00 40 1010.1
20260506005038 77 148 1.7 7.0 0.00 0.00 0.00 39 1010.0
20260506004550 77 203 1.7 7.0 0.00 0.00 0.00 39 1009.9
20260506004038 77 223 2.6 7.0 0.00 0.00 0.00 39 1009.9
20260506003538 77 241 0.9 6.1 0.00 0.00 0.00 38 1009.8
20260506003058 77 193 1.7 6.1 0.00 0.00 0.00 38 1009.9
20260506002537 78 0 1.7 6.1 0.00 0.00 0.00 37 1009.8
20260506002038 78 0 1.7 6.1 0.00 0.00 0.00 37 1009.8
20260506001547 78 180 1.7 6.1 0.00 0.00 0.00 37 1009.8
20260506001039 78 0 1.7 7.8 0.00 0.00 0.00 37 1009.7
20260506000539 78 205 1.7 7.8 0.00 0.00 0.00 36 1009.6
20260506000100 78 238 1.7 7.8 0.00 0.00 0.00 36 1009.6
20260505235539 79 180 0.9 7.8 0.00 0.00 0.00 36 1009.6
20260505235038 79 219 1.7 7.8 0.00 0.00 0.00 35 1009.5
20260505234558 79 223 2.6 7.8 0.00 0.00 0.00 34 1009.5
20260505234039 79 193 2.6 6.1 0.00 0.00 0.00 34 1009.4
20260505233538 80 142 0.9 6.1 0.00 0.00 0.00 34 1009.4
20260505233108 80 231 1.7 11.3 0.00 0.00 0.00 33 1009.3
20260505232538 80 194 1.7 11.3 0.00 0.00 0.00 32 1009.4
20260505232038 80 235 2.6 11.3 0.00 0.00 0.00 32 1009.4
20260505231556 81 0 1.7 8.7 0.00 0.00 0.00 31 1009.4
20260505231038 81 231 1.7 8.7 0.00 0.00 0.00 31 1009.4
20260505230538 81 221 3.5 12.2 0.00 0.00 0.00 30 1009.4
20260505230048 81 205 3.5 12.2 0.00 0.00 0.00 30 1009.4
20260505225538 81 232 3.5 12.2 0.00 0.00 0.00 29 1009.4
20260505225040 81 200 4.3 12.2 0.00 0.00 0.00 29 1009.3
20260505224547 82 165 3.5 14.8 0.00 0.00 0.00 29 1009.5
20260505224037 82 276 5.2 14.8 0.00 0.00 0.00 28 1009.5
20260505223534 83 205 5.2 12.2 0.00 0.00 0.00 28 1009.4
20260505223052 83 221 3.5 10.4 0.00 0.00 0.00 27 1009.3
20260505222534 83 219 2.6 17.4 0.00 0.00 0.00 26 1009.3
20260505222036 83 250 4.3 17.4 0.00 0.00 0.00 27 1009.2
20260505221549 83 170 3.5 9.6 0.00 0.00 0.00 28 1009.2
20260505221035 83 178 2.6 11.3 0.00 0.00 0.00 28 1009.2
20260505220539 83 180 3.5 13.0 0.00 0.00 0.00 29 1009.1
20260505220048 83 232 1.7 13.0 0.00 0.00 0.00 29 1009.1
20260505215535 83 231 2.6 9.6 0.00 0.00 0.00 28 1009.2
20260505215035 83 278 0.9 9.6 0.00 0.00 0.00 28 1009.2
20260505214555 83 205 1.7 11.3 0.00 0.00 0.00 27 1009.2
20260505214035 83 286 3.5 11.3 0.00 0.00 0.00 27 1009.2
20260505213534 83 248 4.3 12.2 0.00 0.00 0.00 27 1009.3
20260505213048 83 234 2.6 12.2 0.00 0.00 0.00 26 1009.2
20260505212536 84 49 3.5 12.2 0.00 0.00 0.00 25 1009.2
20260505212035 84 239 2.6 16.5 0.00 0.00 0.00 26 1009.2
20260505211547 85 288 2.6 16.5 0.00 0.00 0.00 26 1009.1
20260505211038 85 142 5.2 15.6 0.00 0.00 0.00 24 1009.0
20260505210535 85 31 3.5 10.4 0.00 0.00 0.00 25 1009.1
20260505210051 84 246 4.3 10.4 0.00 0.00 0.00 25 1009.1
20260505205536 84 255 5.2 16.5 0.00 0.00 0.00 24 1009.1
20260505205035 84 274 4.3 16.5 0.00 0.00 0.00 24 1009.0
20260505204548 85 250 3.5 14.8 0.00 0.00 0.00 25 1009.3
20260505204035 85 261 4.3 16.5 0.00 0.00 0.00 24 1009.0
20260505203536 85 188 5.2 16.5 0.00 0.00 0.00 24 1009.0
20260505203055 86 296 2.6 13.9 0.00 0.00 0.00 25 1009.0
20260505202539 86 239 4.3 13.9 0.00 0.00 0.00 25 1009.0
20260505202037 85 62 3.5 13.9 0.00 0.00 0.00 25 1009.2
20260505201557 85 246 4.3 13.0 0.00 0.00 0.00 24 1009.2
20260505201035 86 180 4.3 13.0 0.00 0.00 0.00 25 1009.2
20260505200535 85 101 3.5 13.9 0.00 0.00 0.00 25 1009.2
20260505200051 85 287 5.2 13.9 0.00 0.00 0.00 25 1009.3
20260505195535 86 244 3.5 13.9 0.00 0.00 0.00 26 1009.3
20260505195034 86 161 2.6 12.2 0.00 0.00 0.00 27 1009.2
20260505194605 86 166 4.3 12.2 0.00 0.00 0.00 27 1009.3
20260505194035 86 205 6.1 13.0 0.00 0.00 0.00 27 1009.4
20260505193536 86 247 5.2 13.0 0.00 0.00 0.00 26 1009.6
20260505193046 86 294 3.5 14.8 0.00 0.00 0.00 25 1009.5
20260505192535 86 244 1.7 14.8 0.00 0.00 0.00 26 1009.7
20260505192035 86 240 3.5 10.4 0.00 0.00 0.00 26 1009.8
20260505191546 86 144 3.5 11.3 0.00 0.00 0.00 26 1009.8
20260505191037 86 286 2.6 11.3 0.00 0.00 0.00 27 1010.0
20260505190534 85 280 4.3 13.9 0.00 0.00 0.00 26 1010.3
20260505190053 85 113 5.2 13.9 0.00 0.00 0.00 27 1010.3
20260505185535 85 117 3.5 12.2 0.00 0.00 0.00 28 1010.3
20260505185035 85 194 1.7 12.2 0.00 0.00 0.00 30 1010.5
20260505184550 85 205 4.3 16.5 0.00 0.00 0.00 28 1010.6
20260505184035 85 207 2.6 16.5 0.00 0.00 0.00 27 1010.6
20260505183535 85 163 3.5 12.2 0.00 0.00 0.00 28 1010.7
20260505183055 84 291 4.3 15.6 0.00 0.00 0.00 29 1010.6
20260505182534 84 325 5.2 15.6 0.00 0.00 0.00 29 1010.6
20260505182037 84 229 3.5 9.6 0.00 0.00 0.00 29 1010.7
20260505181551 84 309 2.6 10.4 0.00 0.00 0.00 30 1010.6
20260505181034 84 275 4.3 11.3 0.00 0.00 0.00 29 1010.8
20260505180538 84 257 3.5 11.3 0.00 0.00 0.00 29 1011.0
20260505180054 84 251 3.5 13.0 0.00 0.00 0.00 30 1010.9
20260505175535 83 136 3.5 13.9 0.00 0.00 0.00 31 1011.0
20260505175035 83 250 4.3 13.9 0.00 0.00 0.00 31 1011.0
20260505174556 83 260 4.3 10.4 0.00 0.00 0.00 30 1010.9
20260505174035 83 243 4.3 11.3 0.00 0.00 0.00 33 1011.0
20260505173535 83 206 3.5 11.3 0.00 0.00 0.00 31 1011.1
20260505173048 83 122 3.5 12.2 0.00 0.00 0.00 32 1010.9
20260505172535 83 173 4.3 12.2 0.00 0.00 0.00 32 1011.1
20260505172035 83 289 3.5 10.4 0.00 0.00 0.00 32 1011.1
20260505171551 83 271 3.5 9.6 0.00 0.00 0.00 31 1011.1
20260505171038 83 152 2.6 9.6 0.00 0.00 0.00 31 1011.2
20260505170535 82 255 2.6 9.6 0.00 0.00 0.00 34 1011.2
20260505170052 82 256 1.7 7.0 0.00 0.00 0.00 35 1011.3
20260505165535 82 263 3.5 7.0 0.00 0.00 0.00 33 1011.4
20260505165035 82 179 2.6 13.9 0.00 0.00 0.00 35 1011.5
20260505164610 82 81 2.6 13.9 0.00 0.00 0.00 35 1011.6
20260505164034 82 195 2.6 8.7 0.00 0.00 0.00 35 1011.7
20260505163535 81 163 2.6 8.7 0.00 0.00 0.00 35 1011.8
20260505163101 81 248 2.6 7.8 0.00 0.00 0.00 36 1011.9
20260505162535 81 256 3.5 9.6 0.00 0.00 0.00 35 1011.9
20260505162035 81 224 1.7 9.6 0.00 0.00 0.00 38 1012.0
20260505161553 81 263 1.7 7.8 0.00 0.00 0.00 39 1012.0
20260505161035 80 272 2.6 8.7 0.00 0.00 0.00 39 1012.1
20260505160538 80 198 1.7 8.7 0.00 0.00 0.00 39 1012.2
20260505153055 78 161 1.7 12.2 0.00 0.00 0.00 40 1012.4
20260505152539 78 288 3.5 12.2 0.00 0.00 0.00 40 1012.3
20260505152038 78 261 3.5 11.3 0.00 0.00 0.00 41 1012.3
20260505151555 78 217 2.6 10.4 0.00 0.00 0.00 43 1012.4
20260505151036 77 150 3.5 11.3 0.00 0.00 0.00 42 1012.5
20260505150536 77 117 1.7 11.3 0.00 0.00 0.00 44 1012.4
20260505140538 73 47 0.9 5.2 0.00 0.00 0.00 49 1012.4
20260505130108 68 207 2.6 9.6 0.00 0.00 0.00 53 1012.7
20260505125038 68 196 1.7 7.8 0.00 0.00 0.00 53 1012.9
20260505124556 67 264 0.0 8.7 0.00 0.00 0.00 55 1012.9
20260505124038 67 246 2.6 8.7 0.00 0.00 0.00 54 1012.9
20260505123538 67 275 0.0 8.7 0.00 0.00 0.00 55 1012.9
20260505123055 67 197 1.7 8.7 0.00 0.00 0.00 55 1012.9
20260505122535 66 219 1.7 7.0 0.00 0.00 0.00 56 1012.9
20260505122038 66 269 0.0 3.5 0.00 0.00 0.00 57 1012.7
20260505121551 66 258 0.0 4.3 0.00 0.00 0.00 58 1012.7
20260505121038 65 178 0.0 4.3 0.00 0.00 0.00 59 1012.7
20260505120537 65 188 0.9 3.5 0.00 0.00 0.00 59 1012.8
20260505120105 65 0 0.9 4.3 0.00 0.00 0.00 58 1012.7
20260505115538 65 0 0.9 4.3 0.00 0.00 0.00 59 1012.7
20260505115043 64 219 0.0 4.3 0.00 0.00 0.00 59 1012.6
20260505114547 64 0 0.0 4.3 0.00 0.00 0.00 60 1012.5
20260505114039 64 156 0.9 3.5 0.00 0.00 0.00 60 1012.5
20260505113542 63 0 0.0 3.5 0.00 0.00 0.00 65 1012.4
20260505113052 63 202 0.0 3.5 0.00 0.00 0.00 63 1012.4
20260505112542 62 0 0.0 3.5 0.00 0.00 0.00 67 1012.4
20260505112038 61 0 0.0 0.0 0.00 0.00 0.00 67 1012.3
20260505111552 60 0 0.0 0.0 0.00 0.00 0.00 72 1012.3
20260505111039 60 0 0.0 0.0 0.00 0.00 0.00 75 1012.3
20260505110538 59 0 0.0 0.0 0.00 0.00 0.00 76 1012.2
20260505102038 60 0 0.0 0.0 0.00 0.00 0.00 66 1011.9
20260505101550 60 0 0.0 0.0 0.00 0.00 0.00 64 1011.9
20260505101039 60 0 0.0 0.9 0.00 0.00 0.00 64 1011.8
20260505100539 61 0 0.0 0.9 0.00 0.00 0.00 64 1011.8
20260505100048 61 0 0.0 0.9 0.00 0.00 0.00 63 1011.7
20260505095539 61 0 0.0 1.7 0.00 0.00 0.00 62 1011.6
20260505095038 62 0 0.0 2.6 0.00 0.00 0.00 60 1011.7
20260505094548 62 0 0.0 4.3 0.00 0.00 0.00 60 1011.8
20260505094035 62 100 0.0 6.1 0.00 0.00 0.00 60 1011.7
20260505093535 62 123 0.0 6.1 0.00 0.00 0.00 60 1011.6
20260505093102 62 0 0.0 3.5 0.00 0.00 0.00 59 1011.7
20260505092537 62 0 0.0 3.5 0.00 0.00 0.00 59 1011.6
20260505092036 62 278 0.0 6.1 0.00 0.00 0.00 59 1011.7
20260505091549 62 0 0.9 6.1 0.00 0.00 0.00 59 1011.7
20260505091038 62 198 0.0 7.8 0.00 0.00 0.00 59 1011.7
20260505090535 62 152 0.9 7.8 0.00 0.00 0.00 59 1011.6
20260505090050 62 163 1.7 7.8 0.00 0.00 0.00 58 1011.6
20260505085536 62 166 0.0 6.1 0.00 0.00 0.00 58 1011.6
20260505085038 62 0 0.0 6.1 0.00 0.00 0.00 58 1011.6
20260505084548 62 161 0.9 7.0 0.00 0.00 0.00 58 1011.6
20260505084038 62 0 0.9 7.8 0.00 0.00 0.00 58 1011.5
20260505083538 62 257 0.9 7.8 0.00 0.00 0.00 58 1011.5
20260505083048 62 0 0.0 2.6 0.00 0.00 0.00 58 1011.4
20260505082535 62 0 0.0 2.6 0.00 0.00 0.00 58 1011.3
20260505082035 62 0 0.0 2.6 0.00 0.00 0.00 58 1011.3
20260505081552 62 140 0.0 3.5 0.00 0.00 0.00 58 1011.4
20260505081037 62 0 0.9 3.5 0.00 0.00 0.00 58 1011.2
20260505080538 62 0 0.0 5.2 0.00 0.00 0.00 58 1011.2
20260505080049 62 101 0.0 5.2 0.00 0.00 0.00 58 1011.1
20260505075535 62 0 0.0 6.1 0.00 0.00 0.00 58 1011.2
20260505075035 61 0 1.7 6.1 0.00 0.00 0.00 58 1011.2
20260505074552 61 167 0.0 1.7 0.00 0.00 0.00 58 1011.2
20260505074035 61 0 0.0 1.7 0.00 0.00 0.00 59 1011.2
20260505073535 61 155 0.0 1.7 0.00 0.00 0.00 59 1011.2
20260505073051 61 0 0.0 0.0 0.00 0.00 0.00 59 1011.3
20260505072535 61 0 0.0 0.0 0.00 0.00 0.00 59 1011.3
20260505072036 61 0 0.0 0.0 0.00 0.00 0.00 58 1011.1
20260505071553 61 0 0.0 0.0 0.00 0.00 0.00 60 1011.1
20260505071035 62 0 0.0 0.0 0.00 0.00 0.00 58 1011.1
20260505070538 62 0 0.0 0.9 0.00 0.00 0.00 58 1011.0
20260505070047 62 0 0.0 0.9 0.00 0.00 0.00 58 1011.0
20260505065536 62 0 0.0 2.6 0.00 0.00 0.00 57 1010.9
20260505065035 62 0 0.0 2.6 0.00 0.00 0.00 57 1010.9
20260505064547 62 0 0.0 2.6 0.00 0.00 0.00 57 1010.8
20260505064038 62 187 0.0 1.7 0.00 0.00 0.00 57 1010.9
20260505063538 63 0 0.0 3.5 0.00 0.00 0.00 57 1010.9
20260505063050 63 0 0.0 3.5 0.00 0.00 0.00 57 1010.9
20260505062538 63 0 0.0 3.5 0.00 0.00 0.00 57 1010.8
20260505062038 63 0 0.0 4.3 0.00 0.00 0.00 56 1010.8